Location: Hilton Head Island
(32.2163°N, 80.7526°W)
Time: 03:07:15
(UTC-04:00)

Vanguard 1 - Pass Details

Date: 22 February 2026
Orbit: 653 x 3818 km, 34.2° (Epoch: 9 March)

Event Time Altitude Azimuth Distance (km) Brightness Sun altitude
Rises 23:01:49 0° 280° (W) 7,298 14.9 -58.7°
Reaches altitude 10° 23:08:21 10° 267° (W) 6,621 14.5 -59.8°
Maximum altitude 23:22:57 22° 227° (SW) 5,925 13.8 -61.9°
Enters shadow 23:24:41 22° 221° (SW) 5,929 13.8 -62.2°
Drops below altitude 10° 23:37:37 10° 185° (S) 6,519 - -63.8°
Sets 23:44:16 0° 171° (S) 7,144 - -64.6°
